Location: Montjuich
(41.3670°N, 2.1670°E)
Time: 07:12:54
(UTC+02:00)

ISS - Visible Passes

Search period start: 20 July 2018 00:00
Search period end: 30 July 2018 00:00
Orbit: 402 x 408 km, 51.6° (Epoch: 20 July)

Date Brightness Start Highest point End Pass type
(mag) Time Alt. Az. Time Alt. Az. Time Alt. Az.
20 Jul -1.3 00:37:19 10° WNW 00:40:02 23° NNW 00:42:46 10° NE visible
20 Jul -0.5 02:15:37 10° NW 02:17:25 14° N 02:19:13 10° NNE visible
20 Jul -1.2 03:52:10 10° NW 03:54:49 22° NNE 03:57:28 10° ENE visible
20 Jul -3.9 05:28:18 10° WNW 05:31:36 73° SW 05:34:52 10° SE visible
20 Jul -3.1 22:08:22 10° SSW 22:11:19 31° SE 22:14:17 10° ENE visible
20 Jul -2.0 23:44:45 10° W 23:47:47 33° NNW 23:50:49 10° NE visible
21 Jul -0.5 01:23:04 10° NW 01:25:01 15° N 01:26:57 10° NNE visible
21 Jul -0.8 03:00:12 10° NNW 03:02:29 17° NNE 03:04:46 10° ENE visible
21 Jul -3.3 04:36:14 10° NW 04:39:30 60° NNE 04:42:45 10° ESE visible
21 Jul -3.1 22:52:22 10° WSW 22:55:35 55° NNW 22:58:49 10° NE visible
22 Jul -0.7 00:30:24 10° NW 00:32:38 17° NNW 00:34:51 10° NNE visible
22 Jul -0.6 02:08:08 10° NNW 02:10:06 15° N 02:12:04 10° NE visible
22 Jul -2.2 03:44:13 10° NW 03:47:18 36° NNE 03:50:23 10° E visible
22 Jul -3.0 05:20:49 10° WNW 05:23:44 29° SW 05:26:38 10° SSE visible
22 Jul -3.9 22:00:11 10° SW 22:03:26 80° SE 22:06:44 10° ENE visible
22 Jul -1.1 23:37:40 10° WNW 23:40:15 21° NNW 23:42:51 10° NNE visible
23 Jul -0.5 01:15:52 10° NNW 01:17:41 14° N 01:19:28 10° NE visible
23 Jul -1.0 02:52:15 10° NW 02:53:20 16° NNW 02:53:20 16° NNW visible
23 Jul -1.7 22:45:01 10° W 22:47:56 29° NNW 22:50:52 10° NE visible
24 Jul -0.6 00:23:23 10° NW 00:25:14 14° N 00:27:05 10° NNE visible
24 Jul -0.8 02:00:15 10° NNW 02:01:44 17° N 02:01:44 17° N visible
24 Jul -2.5 21:52:32 10° WSW 21:55:40 45° NNW 21:58:51 10° NE visible
24 Jul -0.7 23:30:42 10° NW 23:32:48 16° N 23:34:54 10° NNE visible
25 Jul -0.8 01:08:12 10° NNW 01:10:16 15° N 01:10:45 15° NNE visible
25 Jul -1.0 22:37:56 10° WNW 22:40:22 19° NNW 22:42:50 10° NNE visible
26 Jul -0.7 00:15:59 10° NNW 00:17:49 14° N 00:19:39 10° NE visible
26 Jul -0.6 01:52:14 10° NW 01:52:35 12° NW 01:52:35 12° NW visible
26 Jul -1.4 21:45:12 10° W 21:48:00 25° NNW 21:50:48 10° NE visible
26 Jul -0.8 23:23:33 10° NW 23:25:20 14° N 23:27:08 10° NNE visible
27 Jul -1.0 01:00:12 10° NNW 01:01:54 18° N 01:01:54 18° N visible
27 Jul -0.8 22:30:52 10° NW 22:32:51 15° N 22:34:50 10° NNE visible
28 Jul -1.1 00:08:08 10° NNW 00:10:20 16° NNE 00:11:15 15° NNE visible
28 Jul -1.0 21:38:05 10° WNW 21:40:23 18° NNW 21:42:42 10° NNE visible
28 Jul -0.9 23:15:57 10° NNW 23:17:51 14° N 23:19:44 10° NE visible
29 Jul -1.0 00:52:05 10° NW 00:53:17 18° NNW 00:53:17 18° NNW visible
29 Jul -0.9 22:23:34 10° NNW 22:25:20 14° N 22:27:06 10° NNE visible
